Time,TemperatureF,DewpointF,PressureIn,WindDirection,WindDirectionDegrees,WindSpeedMPH,WindSpeedGustMPH,Humidity,HourlyPrecipIn,Conditions,Clouds,dailyrainin,SoftwareType,DateUTC
2013-01-18 03:12:00,29.0,-6.0,-100.00,NNW,340,10.0,15.0,21,-99.99,,,-99.99,,2013-01-18 08:12:00,
2013-01-18 03:22:00,28.0,-6.0,-100.00,North,0,8.0,22.0,22,-99.99,,,-99.99,,2013-01-18 08:22:00,
2013-01-18 03:32:00,28.0,-6.0,-100.00,North,350,5.0,16.0,21,-99.99,,,-99.99,,2013-01-18 08:32:00,
2013-01-18 03:42:00,29.0,-8.0,-100.00,NE,50,5.0,13.0,19,-99.99,,,-99.99,,2013-01-18 08:42:00,
2013-01-18 03:53:00,29.0,-9.0,-100.00,North,350,6.0,15.0,18,-99.99,,,-99.99,,2013-01-18 08:53:00,
2013-01-18 04:03:00,28.0,-7.0,-100.00,North,355,6.0,14.0,20,-99.99,,,-99.99,,2013-01-18 09:03:00,
2013-01-18 04:12:00,28.0,-9.0,-100.00,North,355,9.0,16.0,19,-99.99,,,-99.99,,2013-01-18 09:12:00,
2013-01-18 04:22:00,28.0,-9.0,-100.00,North,350,7.0,13.0,19,-99.99,,,-99.99,,2013-01-18 09:22:00,
2013-01-18 04:33:00,28.0,-9.0,-100.00,North,350,7.0,13.0,19,-99.99,,,-99.99,,2013-01-18 09:33:00,
2013-01-18 05:33:00,27.0,-17.0,-100.00,North,355,8.0,15.0,13,-99.99,,,-99.99,,2013-01-18 10:33:00,
2013-01-18 05:43:00,27.0,-22.0,-100.00,NNE,30,7.0,22.0,10,-99.99,,,-99.99,,2013-01-18 10:43:00,
2013-01-18 05:52:00,27.0,-25.0,-100.00,North,10,8.0,16.0,9,-99.99,,,-99.99,,2013-01-18 10:52:00,
2013-01-18 06:03:00,26.0,-27.0,-100.00,NNE,25,9.0,16.0,8,-99.99,,,-99.99,,2013-01-18 11:03:00,
2013-01-18 06:42:00,25.0,-28.0,-100.00,North,0,9.0,17.0,8,-99.99,,,-99.99,,2013-01-18 11:42:00,
2013-01-18 06:52:00,25.0,-26.0,-100.00,North,355,8.0,16.0,9,-99.99,,,-99.99,,2013-01-18 11:52:00,
2013-01-18 07:03:00,24.0,-31.0,-100.00,North,0,10.0,22.0,7,-99.99,,,-99.99,,2013-01-18 12:03:00,
2013-01-18 07:12:00,24.0,-31.0,-100.00,North,10,8.0,17.0,7,-99.99,,,-99.99,,2013-01-18 12:12:00,
2013-01-18 07:23:00,23.0,-27.0,-100.00,North,350,10.0,18.0,9,-99.99,,,-99.99,,2013-01-18 12:23:00,
2013-01-18 07:33:00,23.0,-27.0,-100.00,North,350,10.0,18.0,9,-99.99,,,-99.99,,2013-01-18 12:33:00,
2013-01-18 07:43:00,22.0,-24.0,-100.00,North,350,8.0,14.0,11,-99.99,,,-99.99,,2013-01-18 12:43:00,
2013-01-18 07:53:00,22.0,-24.0,-100.00,NNW,345,6.0,12.0,11,-99.99,,,-99.99,,2013-01-18 12:53:00,
2013-01-18 08:03:00,22.0,-25.0,-100.00,NNW,345,8.0,15.0,11,-99.99,,,-99.99,,2013-01-18 13:03:00,
2013-01-18 08:12:00,22.0,-22.0,-100.00,NNW,340,8.0,13.0,13,-99.99,,,-99.99,,2013-01-18 13:12:00,
2013-01-18 08:33:00,21.0,-22.0,-100.00,North,350,9.0,17.0,13,-99.99,,,-99.99,,2013-01-18 13:33:00,
2013-01-18 08:43:00,21.0,-22.0,-100.00,North,350,9.0,17.0,13,-99.99,,,-99.99,,2013-01-18 13:43:00,
2013-01-18 08:53:00,21.0,-22.0,-100.00,NNW,345,10.0,17.0,13,-99.99,,,-99.99,,2013-01-18 13:53:00,
2013-01-18 09:03:00,21.0,-22.0,-100.00,North,355,10.0,20.0,13,-99.99,,,-99.99,,2013-01-18 14:03:00,
2013-01-18 09:13:00,21.0,-22.0,-100.00,North,350,10.0,20.0,13,-99.99,,,-99.99,,2013-01-18 14:13:00,
2013-01-18 09:23:00,21.0,-22.0,-100.00,NNW,345,13.0,20.0,13,-99.99,,,-99.99,,2013-01-18 14:23:00,
2013-01-18 09:34:00,22.0,-25.0,-100.00,North,5,10.0,21.0,11,-99.99,,,-99.99,,2013-01-18 14:34:00,
2013-01-18 09:43:00,22.0,-23.0,-100.00,NNW,335,12.0,18.0,12,-99.99,,,-99.99,,2013-01-18 14:43:00,
2013-01-18 09:53:00,22.0,-26.0,-100.00,NNW,340,15.0,22.0,10,-99.99,,,-99.99,,2013-01-18 14:53:00,
2013-01-18 10:03:00,22.0,-28.0,-100.00,North,350,9.0,24.0,9,-99.99,,,-99.99,,2013-01-18 15:03:00,
2013-01-18 10:13:00,22.0,-36.0,-100.00,NNW,345,13.0,24.0,6,-99.99,,,-99.99,,2013-01-18 15:13:00,
2013-01-18 11:13:00,21.0,-33.0,-100.00,North,350,12.0,21.0,7,-99.99,,,-99.99,,2013-01-18 16:13:00,
2013-01-18 11:23:00,21.0,-33.0,-100.00,North,350,12.0,21.0,7,-99.99,,,-99.99,,2013-01-18 16:23:00,
2013-01-18 11:33:00,22.0,-30.0,-100.00,North,0,10.0,17.0,8,-99.99,,,-99.99,,2013-01-18 16:33:00,
2013-01-18 11:43:00,22.0,-33.0,-100.00,NNW,345,10.0,17.0,7,-99.99,,,-99.99,,2013-01-18 16:43:00,
2013-01-18 11:52:00,22.0,-33.0,-100.00,NNW,345,10.0,17.0,7,-99.99,,,-99.99,,2013-01-18 16:52:00,
2013-01-18 12:03:00,23.0,-27.0,-100.00,North,350,6.0,14.0,9,-99.99,,,-99.99,,2013-01-18 17:03:00,
2013-01-18 12:13:00,23.0,-30.0,-100.00,NNW,335,8.0,16.0,8,-99.99,,,-99.99,,2013-01-18 17:13:00,
2013-01-18 12:23:00,23.0,-30.0,-100.00,NNW,335,8.0,16.0,8,-99.99,,,-99.99,,2013-01-18 17:23:00,
2013-01-18 12:34:00,23.0,-32.0,-100.00,NNW,345,15.0,24.0,7,-99.99,,,-99.99,,2013-01-18 17:34:00,
2013-01-18 12:43:00,23.0,-32.0,-100.00,NNW,340,15.0,27.0,7,-99.99,,,-99.99,,2013-01-18 17:43:00,
2013-01-18 12:53:00,23.0,-34.0,-100.00,NNW,345,17.0,24.0,6,-99.99,,,-99.99,,2013-01-18 17:53:00,
2013-01-18 13:03:00,24.0,-31.0,-100.00,North,350,15.0,24.0,7,-99.99,,,-99.99,,2013-01-18 18:03:00,
2013-01-18 13:13:00,24.0,-29.0,-100.00,NNW,345,13.0,27.0,8,-99.99,,,-99.99,,2013-01-18 18:13:00,
2013-01-18 13:24:00,24.0,-31.0,-100.00,NNW,345,13.0,24.0,7,-99.99,,,-99.99,,2013-01-18 18:24:00,
2013-01-18 13:33:00,24.0,-31.0,-100.00,NNW,345,14.0,29.0,7,-99.99,,,-99.99,,2013-01-18 18:33:00,
2013-01-18 13:43:00,24.0,-31.0,-100.00,North,355,14.0,30.0,7,-99.99,,,-99.99,,2013-01-18 18:43:00,
2013-01-18 13:52:00,24.0,-31.0,-100.00,North,355,14.0,22.0,7,-99.99,,,-99.99,,2013-01-18 18:52:00,
2013-01-18 14:33:00,25.0,-33.0,-100.00,North,10,6.0,15.0,6,-99.99,,,-99.99,,2013-01-18 19:33:00,
2013-01-18 14:43:00,25.0,-33.0,-100.00,North,350,12.0,20.0,6,-99.99,,,-99.99,,2013-01-18 19:43:00,
2013-01-18 14:52:00,24.0,-34.0,-100.00,NNW,340,7.0,15.0,6,-99.99,,,-99.99,,2013-01-18 19:52:00,
2013-01-18 15:03:00,25.0,-33.0,-100.00,North,10,5.0,14.0,6,-99.99,,,-99.99,,2013-01-18 20:03:00,
2013-01-18 15:13:00,25.0,-33.0,-100.00,NNW,345,10.0,17.0,6,-99.99,,,-99.99,,2013-01-18 20:13:00,
2013-01-18 15:23:00,26.0,-28.0,-100.00,NNW,340,5.0,14.0,8,-99.99,,,-99.99,,2013-01-18 20:23:00,
2013-01-18 15:33:00,26.0,-28.0,-100.00,NNW,340,5.0,14.0,8,-99.99,,,-99.99,,2013-01-18 20:33:00,
2013-01-18 15:43:00,25.0,-30.0,-100.00,NNW,345,9.0,15.0,7,-99.99,,,-99.99,,2013-01-18 20:43:00,
2013-01-18 15:53:00,26.0,-33.0,-100.00,North,350,7.0,15.0,6,-99.99,,,-99.99,,2013-01-18 20:53:00,
2013-01-18 16:03:00,25.0,-30.0,-100.00,NNE,15,5.0,15.0,7,-99.99,,,-99.99,,2013-01-18 21:03:00,
2013-01-18 16:30:00,24.0,-24.0,-100.00,NNW,330,2.0,10.0,10,-99.99,,,-99.99,,2013-01-18 21:30:00,
2013-01-18 16:33:00,25.0,-26.0,-100.00,NNW,340,5.0,12.0,9,-99.99,,,-99.99,,2013-01-18 21:33:00,
2013-01-18 16:43:00,25.0,-26.0,-100.00,NNW,330,3.0,14.0,9,-99.99,,,-99.99,,2013-01-18 21:43:00,
2013-01-18 16:52:00,25.0,-28.0,-100.00,NNW,345,5.0,9.0,8,-99.99,,,-99.99,,2013-01-18 21:52:00,
2013-01-18 17:03:00,25.0,-26.0,-100.00,NNW,330,2.0,9.0,9,-99.99,,,-99.99,,2013-01-18 22:03:00,
2013-01-18 17:12:00,24.0,-24.0,-100.00,NNW,330,2.0,10.0,10,-99.99,,,-99.99,,2013-01-18 22:12:00,
2013-01-18 17:23:00,24.0,-24.0,-100.00,NNW,330,2.0,10.0,10,-99.99,,,-99.99,,2013-01-18 22:23:00,
2013-01-18 18:12:00,22.0,-14.0,-100.00,West,260,1.0,7.0,19,-99.99,,,-99.99,,2013-01-18 23:12:00,
2013-01-18 18:23:00,22.0,-17.0,-100.00,NNW,340,2.0,6.0,16,-99.99,,,-99.99,,2013-01-18 23:23:00,
2013-01-18 20:23:00,18.0,-4.0,-100.00,SSW,200,1.0,3.0,37,-99.99,,,-99.99,,2013-01-19 01:23:00,
2013-01-18 20:33:00,17.0,-3.0,-100.00,West,280,0.0,1.0,39,-99.99,,,-99.99,,2013-01-19 01:33:00,
2013-01-18 20:43:00,17.0,-2.0,-100.00,West,265,0.0,3.0,41,-99.99,,,-99.99,,2013-01-19 01:43:00,
2013-01-18 20:52:00,17.0,-4.0,-100.00,SSW,200,0.0,3.0,38,-99.99,,,-99.99,,2013-01-19 01:52:00,
2013-01-18 21:03:00,17.0,-2.0,-100.00,NNW,330,1.0,2.0,42,-99.99,,,-99.99,,2013-01-19 02:03:00,
2013-01-18 21:33:00,17.0,-4.0,-100.00,NNW,340,2.0,5.0,38,-99.99,,,-99.99,,2013-01-19 02:33:00,
2013-01-18 21:43:00,17.0,-2.0,-100.00,South,190,0.0,1.0,43,-99.99,,,-99.99,,2013-01-19 02:43:00,
2013-01-18 21:53:00,17.0,-2.0,-100.00,South,190,0.0,1.0,43,-99.99,,,-99.99,,2013-01-19 02:53:00,
2013-01-18 22:03:00,17.0,1.0,-100.00,East,95,0.0,3.0,49,-99.99,,,-99.99,,2013-01-19 03:03:00,
2013-01-18 22:43:00,17.0,-3.0,-100.00,South,170,1.0,2.0,40,-99.99,,,-99.99,,2013-01-19 03:43:00,
2013-01-18 22:52:00,16.0,0.0,-100.00,SW,230,0.0,2.0,47,-99.99,,,-99.99,,2013-01-19 03:52:00,
2013-01-18 23:02:00,16.0,0.0,-100.00,SSE,160,1.0,2.0,49,-99.99,,,-99.99,,2013-01-19 04:02:00,
2013-01-18 23:12:00,17.0,0.0,-100.00,ESE,115,1.0,2.0,47,-99.99,,,-99.99,,2013-01-19 04:12:00,
2013-01-18 23:22:00,17.0,0.0,-100.00,ESE,115,1.0,2.0,47,-99.99,,,-99.99,,2013-01-19 04:22:00,
2013-01-18 23:33:00,16.0,-1.0,-100.00,WSW,255,0.0,2.0,46,-99.99,,,-99.99,,2013-01-19 04:33:00,
2013-01-18 23:42:00,17.0,1.0,-100.00,SW,215,0.0,1.0,49,-99.99,,,-99.99,,2013-01-19 04:42:00,
2013-01-18 23:52:00,17.0,1.0,-100.00,SW,215,0.0,1.0,49,-99.99,,,-99.99,,2013-01-19 04:52:00,